Temperature
8 9 9 10 10 11 11 11 11 12 11 12 13 13 13 12 12 12 12 11 11 11 10 11 11 11 11 11 11 11 11 11 11 11 11 11 10 10 10 10 10 10 10 10
8 8 9 10 10 10 10 10 11 11 11 11 12 12 12 12 11 11 11 11 10 10 9 10 10 10 11 11 11 11 11 11 11 11 11 10 10 10 10 10 10 10 10 10
8 9 9 9 9 9 10 10 10 10 10 11 11 12 12 12 11 10 9 9 10 9 9 9 9 10 10 10 11 10 10 11 10 10 10 10 10 10 10 9 10 9 9 9
8 8 8 8 9 9 9 10 10 10 10 10 11 11 13 12 11 10 10 9 9 8 8 8 9 9 10 10 10 10 10 10 10 10 10 10 10 10 10 9 9 9 9 9
7 7 8 8 8 9 9 9 10 10 10 10 10 10 13 11 11 11 10 9 8 8 8 8 8 9 9 10 10 10 10 10 10 9 9 9 9 9 9 9 9 9 8 8
7 7 7 7 8 8 8 9 9 9 9 9 11 11 12 11 11 11 11 9 8 7 7 7 7 8 8 9 9 10 9 9 9 9 9 9 9 9 9 9 9 8 8 8
6 6 6 7 7 7 8 8 8 8 8 10 10 10 11 11 10 10 10 9 8 7 7 7 7 7 8 8 9 9 9 9 9 9 9 9 9 9 9 9 8 8 8 8
6 6 6 6 7 7 7 8 8 9 9 10 9 9 10 9 8 8 8 8 7 7 6 6 7 7 7 8 8 8 9 9 9 9 9 9 8 8 8 8 8 8 8 8
5 6 6 6 6 7 7 7 8 8 8 9 10 9 9 8 8 8 8 7 7 6 6 6 6 6 7 7 7 8 8 8 8 8 8 8 8 8 8 8 8 8 8 7
5 5 5 6 6 6 7 7 7 7 8 9 10 9 10 9 8 8 8 7 6 6 5 5 6 6 6 7 7 7 7 8 8 8 8 8 8 8 8 7 8 7 7 7
4 4 5 6 6 6 6 6 6 7 8 9 9 10 9 8 8 7 7 6 5 5 5 5 5 6 6 6 6 7 7 7 7 7 7 7 7 7 7 7 7 7 7 7
4 4 5 5 5 5 6 6 6 6 6 7 9 9 7 7 7 7 6 5 5 4 4 4 5 5 5 5 6 6 6 6 6 7 7 7 7 7 7 7 7 7 7 7
3 3 4 5 5 4 4 5 5 5 6 7 8 9 7 7 6 6 5 5 4 4 4 4 4 4 5 5 5 5 6 6 6 6 6 6 6 6 6 6 6 6 6 6
4 3 4 5 5 4 3 4 4 5 6 7 8 8 7 7 6 6 5 4 4 3 3 3 4 4 4 4 5 5 5 5 5 6 6 6 6 6 6 6 6 6 6 6
3 3 3 3 4 4 4 4 4 4 6 6 7 7 7 7 6 5 4 4 3 3 3 3 3 3 4 4 4 4 5 5 5 5 6 6 6 5 5 5 5 5 5 5
1 2 2 3 3 4 4 4 4 5 5 6 6 6 6 5 5 4 4 3 3 3 3 3 3 3 4 4 4 4 4 4 5 5 5 5 5 5 5 5 5 5 5 5
1 1 2 3 3 3 4 4 4 4 5 5 6 6 5 4 4 4 3 2 2 2 2 2 3 3 3 3 3 3 4 4 4 4 4 5 5 5 4 4 4 4 4 4
-0 0 1 2 3 3 4 3 4 4 3 4 4 4 4 4 3 2 2 2 2 2 2 2 2 3 3 3 3 3 3 4 4 4 4 4 4 4 4 4 4 4 4 4
1 1 1 2 3 4 3 2 2 2 3 3 3 3 2 1 2 2 1 1 1 1 2 2 2 2 2 3 3 3 3 3 3 3 4 4 4 4 4 3 4 3 3 3
-0 -0 1 2 3 3 3 2 1 2 3 2 2 2 1 1 3 3 1 1 1 1 1 1 2 2 2 2 2 2 3 3 3 3 3 3 3 3 3 3 3 3 3 3
0 0 1 1 2 3 2 0 1 3 3 1 1 1 0 1 2 0 -0 -0 0 0 1 1 1 2 2 2 2 2 2 3 3 3 3 3 3 3 3 3 3 3 2 2
0 1 0 1 2 2 0 0 1 1 -0 -1 -1 -1 -1 -1 -1 -1 -1 -1 -0 -0 0 1 1 1 1 2 2 2 2 2 2 2 2 2 2 2 2 2 2 2 2 2
-1 -0 0 0 1 0 -1 -1 -1 -2 -2 -1 -2 -2 -2 -2 -2 -2 -2 -1 -1 -1 -0 -0 0 1 1 1 1 1 2 2 1 1 2 1 1 1 1 1 1 1 1 1
-1 -2 -1 -1 -0 -1 -2 -2 -2 -2 -2 -2 -3 -3 -2 -3 -2 -2 -2 -2 -2 -1 -1 -0 0 0 1 1 1 1 1 1 1 1 1 1 1 1 1 1 1 1 1 1
-2 -2 -2 -1 -1 -2 -2 -3 -3 -3 -3 -3 -3 -3 -3 -3 -3 -3 -3 -2 -2 -2 -1 -1 -1 0 0 1 1 1 1 1 1 1 0 0 0 0 0 0 0 0 0 0
-3 -3 -2 -1 -2 -2 -3 -3 -4 -3 -3 -3 -3 -3 -3 -3 -3 -3 -3 -3 -2 -2 -2 -1 -1 -0 -0 -0 0 0 0 0 0 -0 -0 -0 -0 -0 -0 -0 -0 -1 -0 -0
Wind_Speed
6 8 11 14 13 9 9 10 10 8 5 8 12 11 8 6 6 7 7 7 7 7 6 6 6 7 8 9 10 11 11 11 9 8 7 6 5 5 4 4 4 4 4 4
6 11 11 10 10 7 9 9 8 4 4 6 9 10 8 7 7 7 7 6 5 4 4 5 6 7 8 10 11 12 12 12 11 8 7 5 5 4 4 4 4 4 4 3
10 6 8 9 10 10 10 10 8 5 2 4 5 8 8 6 5 4 3 4 4 5 6 6 7 7 8 9 11 11 12 12 12 10 7 6 5 4 4 4 4 4 4 3
7 4 8 10 11 11 10 8 7 6 6 5 7 7 8 7 6 5 4 4 4 4 5 6 6 7 8 8 8 10 11 12 12 11 10 10 7 6 6 5 4 4 4 4
4 4 8 10 10 9 6 6 6 7 6 4 7 7 5 6 7 7 5 5 4 4 5 5 6 7 7 7 7 8 11 11 12 11 11 10 8 6 5 5 6 5 4 4
2 2 4 5 5 6 4 4 3 3 5 7 10 10 6 5 7 6 5 5 4 3 3 4 3 4 5 6 6 7 10 11 11 11 11 10 10 8 8 7 6 5 4 3
1 2 1 2 4 5 5 6 4 5 6 7 6 8 5 2 3 5 5 4 3 3 2 3 3 4 5 6 7 7 9 10 11 11 11 10 10 9 9 8 7 6 4 4
3 3 3 3 5 5 8 8 5 5 6 4 5 8 3 1 1 2 3 2 1 1 2 2 3 4 5 6 7 8 9 9 10 11 10 9 9 7 6 7 6 6 5 4
2 3 1 2 2 5 6 6 3 1 1 3 6 4 3 0 1 1 1 1 1 1 1 2 2 3 4 5 6 7 8 9 9 10 10 9 9 8 7 7 6 5 4 4
1 2 2 1 2 2 3 4 3 3 5 5 5 6 4 3 2 1 1 1 1 1 0 1 1 2 3 4 5 6 7 7 8 8 8 7 8 8 7 6 6 5 5 4
1 2 2 3 4 5 4 4 3 3 3 4 5 3 1 3 2 2 1 1 2 1 0 0 0 1 2 3 4 5 6 6 6 7 7 8 7 7 7 6 6 5 5 5
1 1 3 3 1 2 4 6 5 4 3 4 4 2 2 1 1 1 1 1 1 1 1 0 0 1 1 2 3 3 4 5 5 6 6 7 7 7 6 6 6 5 5 5
0 1 2 2 3 1 3 3 5 3 2 4 5 3 2 2 1 0 1 2 1 1 1 1 1 1 1 2 2 2 3 4 4 5 5 6 7 7 6 6 5 5 5 5
1 1 4 5 3 3 5 5 5 5 5 6 8 6 4 3 2 1 2 2 1 1 1 1 1 0 1 1 1 2 2 2 3 4 4 5 6 6 6 6 5 5 5 5
1 1 2 4 3 4 6 7 8 9 9 8 8 7 6 5 4 3 2 2 1 2 2 1 1 1 0 0 0 1 1 2 2 3 3 4 5 5 5 5 5 5 4 4
1 1 2 2 2 4 5 7 9 9 9 9 8 8 5 5 4 4 3 2 2 2 2 1 1 1 1 0 0 1 1 1 2 2 2 3 4 5 5 5 5 4 4 4
1 1 2 2 2 3 5 7 8 7 7 8 10 8 4 4 5 5 4 3 3 2 3 2 2 2 1 1 1 1 2 2 2 2 2 3 4 4 5 5 5 4 4 4
3 2 1 1 2 5 1 1 4 5 5 5 6 5 5 5 6 4 3 2 2 3 3 3 2 2 1 1 1 1 1 2 2 2 2 2 3 4 4 5 4 4 4 3
4 3 1 2 3 4 2 1 1 4 5 4 5 5 4 4 3 2 1 2 3 4 3 3 2 1 1 0 0 1 2 2 2 1 1 2 3 4 4 4 4 4 3 3
2 2 2 2 3 4 2 2 4 3 3 1 3 4 3 2 3 3 3 4 4 4 3 2 1 0 0 0 1 1 1 1 1 1 1 2 3 3 4 4 4 3 3 3
2 1 3 4 4 4 3 4 2 3 2 3 4 4 4 4 4 3 4 4 3 3 3 2 1 0 0 0 1 1 1 1 1 0 1 1 2 3 3 3 3 3 2 2
2 2 3 3 4 3 3 2 1 3 5 5 4 3 3 3 3 3 3 3 3 3 2 2 1 1 1 1 1 1 1 1 1 1 1 2 2 2 2 3 2 3 3 2
3 3 2 3 3 3 3 3 4 5 5 5 4 4 3 3 3 3 3 3 2 2 2 2 2 2 1 1 1 1 0 1 2 2 2 2 2 2 2 2 2 3 2 2
2 2 3 3 4 5 5 4 5 5 5 5 4 3 3 2 2 3 3 2 3 3 3 2 2 2 1 1 1 1 1 2 2 2 2 2 2 2 2 2 2 2 2 2
3 2 3 5 6 5 3 4 6 6 5 4 4 3 2 1 2 2 2 2 2 2 3 2 2 2 2 2 2 2 1 2 2 2 2 2 2 2 2 2 1 0 0 1
2 3 4 4 4 4 6 5 6 5 4 4 3 3 2 1 1 2 2 2 2 2 2 2 2 2 2 2 2 1 1 2 3 2 2 2 2 2 2 2 2 3 2 2
Wind_Direction
178 192 202 205 210 224 214 214 218 220 206 214 227 238 242 235 230 231 225 219 217 218 210 195 190 185 184 182 182 180 175 170 165 162 162 160 160 156 152 147 146 149 146 143
181 211 214 210 206 212 208 213 217 219 211 220 231 244 241 236 230 228 227 223 218 212 199 191 187 184 185 184 184 185 182 177 176 176 170 165 156 158 155 149 151 158 157 153
198 208 199 200 200 207 213 212 210 202 207 219 234 243 229 228 218 218 231 231 223 214 209 202 195 191 188 188 189 188 185 182 181 173 158 144 141 146 160 167 166 170 170 164
208 206 189 195 202 206 215 213 207 195 192 209 210 237 222 212 214 221 228 234 234 229 220 209 203 201 198 194 190 191 187 185 180 175 173 170 176 179 183 175 172 170 174 173
197 187 190 201 206 205 208 198 203 205 209 225 214 232 230 195 221 231 236 239 241 235 225 216 212 207 200 190 185 187 187 185 181 182 183 183 186 184 171 168 171 172 173 178
171 182 197 211 208 185 153 145 147 186 204 227 217 217 233 199 221 231 236 239 235 231 222 217 211 202 193 185 181 180 186 185 183 185 187 189 187 182 174 175 176 179 179 182
145 176 151 172 154 164 171 160 166 188 207 227 194 213 235 205 223 234 241 239 229 212 202 203 196 195 191 186 185 183 185 186 185 186 189 190 190 188 186 183 184 184 185 190
192 195 183 183 192 194 198 196 204 205 207 206 189 215 211 107 281 262 262 251 229 208 205 208 202 197 194 189 187 186 187 187 186 186 188 189 190 191 192 190 188 191 193 194
213 215 210 222 215 187 190 208 240 229 185 206 206 216 234 221 267 284 300 324 263 245 224 215 204 196 193 188 188 189 186 186 187 186 185 188 189 191 190 189 191 192 190 187
222 226 227 210 174 180 210 182 193 202 196 215 215 221 223 204 227 255 311 314 308 284 251 205 196 194 192 185 183 182 182 183 185 184 184 185 187 189 189 187 189 188 186 183
273 205 206 193 202 200 170 184 207 207 245 229 221 220 170 223 227 228 255 316 311 288 251 199 194 184 175 161 165 169 175 175 179 182 182 182 183 184 186 187 189 186 181 182
336 210 210 224 248 234 207 202 198 209 219 239 244 243 68 304 288 242 274 331 341 330 313 17 119 132 137 144 151 162 171 172 176 179 179 181 177 179 183 185 185 182 180 181
240 166 182 191 187 190 222 222 214 216 217 228 235 228 56 346 356 340 346 352 7 15 7 26 56 119 134 140 145 155 165 168 170 172 174 176 176 178 183 183 181 180 179 179
310 193 222 229 253 231 238 241 225 214 227 233 243 255 276 286 297 322 336 343 355 4 12 22 21 83 115 133 151 155 159 162 166 167 171 177 180 181 182 179 178 179 180 180
357 236 252 284 276 223 236 232 225 226 234 238 248 252 259 260 279 295 312 330 332 334 344 346 340 350 22 90 155 155 148 150 158 166 172 181 181 178 174 173 175 176 179 182
353 236 245 274 261 227 247 240 229 234 239 244 257 263 276 287 290 284 288 297 291 302 317 320 314 311 312 307 222 179 160 152 155 164 173 172 172 173 173 173 172 174 177 179
237 186 225 253 268 232 248 235 223 226 234 235 247 262 273 273 276 275 271 272 277 291 305 301 284 273 277 272 245 207 176 158 155 153 160 169 171 175 175 173 174 179 179 180
202 198 204 220 195 227 264 307 243 230 246 256 260 277 271 279 289 281 262 256 281 291 293 291 292 299 297 293 282 176 160 155 157 158 164 173 171 173 176 177 181 185 184 184
211 200 203 210 229 253 280 313 276 235 262 263 265 281 301 319 302 269 314 299 288 290 293 287 279 283 271 263 31 147 152 153 162 173 183 180 178 175 180 185 184 183 182 186
142 202 220 219 236 246 301 342 316 242 252 314 282 278 286 278 264 276 324 318 319 320 320 318 310 330 173 128 130 147 157 161 181 200 197 182 183 182 187 188 180 176 179 186
181 199 223 236 249 264 340 327 286 217 297 331 302 285 266 266 283 306 312 318 328 331 335 344 352 20 51 133 146 152 158 180 190 179 154 159 173 180 179 173 168 163 164 170
227 224 224 227 236 256 359 342 264 317 324 314 311 308 297 302 322 324 332 340 346 354 2 6 13 24 39 116 143 150 165 169 129 129 132 140 152 159 166 158 153 155 156 162
227 248 259 236 263 323 319 310 319 321 312 314 316 320 315 311 318 330 338 346 349 357 4 16 42 49 48 72 110 132 167 140 130 126 126 127 127 134 148 148 147 152 155 161
270 283 257 263 274 298 305 310 329 329 323 324 321 315 302 298 309 325 334 342 352 355 3 16 39 44 36 34 40 60 112 138 137 133 125 123 123 122 122 124 136 149 160 163
280 252 260 265 290 308 298 321 330 333 337 345 346 329 307 286 296 312 322 333 342 351 358 11 24 24 21 36 50 59 93 134 134 128 125 125 121 120 115 105 100 137 180 198
247 244 252 269 290 282 288 305 317 321 330 336 339 338 337 323 309 324 328 333 338 349 359 8 18 25 25 37 50 52 79 133 136 134 131 125 120 118 116 108 80 58 55 40
Height
1459 1459 1456 1457 1459 1459 1460 1461 1461 1462 1466 1467 1464 1464 1465 1468 1469 1469 1470 1471 1472 1473 1475 1476 1478 1480 1482 1485 1488 1490 1493 1496 1498 1501 1503 1506 1508 1510 1511 1513 1514 1514 1515 1515
1457 1455 1455 1457 1459 1461 1461 1462 1461 1464 1466 1466 1463 1463 1464 1466 1467 1467 1468 1469 1470 1471 1472 1473 1475 1477 1479 1481 1485 1488 1490 1493 1496 1499 1501 1504 1506 1508 1509 1511 1511 1512 1513 1513
1451 1453 1456 1457 1459 1460 1460 1460 1460 1463 1466 1465 1465 1460 1460 1462 1465 1466 1467 1467 1468 1468 1469 1470 1472 1474 1476 1478 1481 1484 1487 1490 1493 1496 1499 1501 1504 1505 1507 1508 1509 1510 1511 1511
1452 1454 1455 1456 1457 1458 1458 1458 1461 1463 1464 1462 1463 1458 1453 1456 1460 1462 1464 1465 1465 1466 1467 1468 1469 1470 1472 1475 1478 1481 1484 1487 1490 1493 1496 1498 1500 1502 1504 1505 1507 1508 1508 1509
1452 1454 1454 1454 1455 1458 1458 1460 1460 1461 1462 1464 1460 1460 1448 1454 1455 1457 1460 1462 1463 1463 1464 1465 1466 1468 1470 1472 1475 1478 1481 1484 1487 1490 1493 1495 1498 1500 1502 1503 1504 1505 1506 1507
1454 1456 1456 1456 1457 1459 1461 1461 1462 1462 1462 1464 1454 1455 1447 1450 1453 1453 1456 1459 1460 1461 1462 1463 1464 1465 1467 1469 1471 1474 1477 1481 1484 1487 1490 1492 1495 1497 1499 1500 1502 1503 1504 1505
1454 1456 1457 1458 1458 1460 1459 1460 1462 1462 1461 1452 1452 1453 1448 1450 1453 1453 1454 1456 1458 1459 1459 1460 1461 1461 1463 1465 1468 1471 1474 1477 1480 1483 1486 1489 1492 1494 1496 1497 1499 1500 1501 1502
1452 1454 1456 1457 1456 1457 1457 1456 1455 1453 1449 1447 1455 1450 1448 1452 1453 1454 1455 1455 1456 1457 1457 1458 1458 1459 1460 1462 1464 1467 1470 1473 1476 1479 1483 1485 1488 1491 1493 1494 1496 1497 1499 1500
1453 1453 1456 1457 1457 1457 1457 1456 1457 1455 1454 1451 1445 1447 1449 1451 1452 1453 1453 1454 1454 1455 1455 1456 1456 1457 1458 1460 1461 1464 1466 1469 1473 1476 1479 1482 1485 1487 1489 1491 1493 1494 1496 1497
1456 1457 1456 1457 1457 1458 1457 1456 1458 1456 1451 1444 1441 1442 1442 1446 1448 1450 1452 1452 1453 1454 1454 1454 1455 1455 1456 1458 1460 1462 1464 1467 1470 1473 1476 1479 1481 1484 1486 1488 1490 1491 1492 1493
1458 1458 1457 1456 1455 1455 1458 1460 1457 1454 1451 1443 1440 1441 1444 1445 1447 1449 1451 1452 1453 1453 1453 1453 1453 1454 1455 1456 1458 1460 1462 1465 1467 1470 1473 1476 1478 1481 1483 1484 1486 1488 1489 1490
1459 1457 1455 1456 1458 1458 1456 1456 1457 1455 1455 1449 1441 1445 1447 1447 1448 1450 1451 1451 1452 1452 1452 1452 1452 1452 1453 1454 1456 1458 1460 1462 1464 1467 1470 1472 1475 1477 1479 1481 1483 1485 1486 1487
1459 1459 1456 1454 1459 1460 1459 1458 1458 1458 1455 1449 1443 1445 1447 1448 1449 1450 1451 1451 1451 1451 1451 1451 1451 1451 1452 1453 1454 1456 1458 1460 1462 1465 1467 1469 1472 1474 1476 1478 1480 1481 1483 1484
1458 1459 1456 1450 1449 1455 1458 1458 1457 1457 1452 1447 1443 1443 1446 1447 1448 1449 1450 1450 1450 1450 1450 1449 1450 1450 1451 1452 1453 1454 1456 1458 1460 1462 1464 1466 1469 1471 1473 1475 1477 1478 1479 1481
1459 1458 1458 1456 1454 1455 1454 1454 1455 1454 1450 1447 1443 1445 1445 1447 1448 1449 1450 1450 1450 1449 1449 1449 1449 1449 1450 1451 1452 1453 1454 1456 1458 1460 1462 1464 1466 1468 1470 1472 1474 1475 1476 1477
1461 1459 1458 1457 1455 1453 1453 1450 1451 1451 1449 1448 1446 1445 1446 1448 1449 1449 1449 1449 1449 1448 1448 1448 1448 1448 1449 1450 1451 1452 1453 1454 1456 1458 1459 1461 1463 1465 1467 1469 1470 1472 1473 1474
1462 1461 1457 1452 1454 1453 1450 1448 1448 1448 1448 1447 1444 1444 1447 1448 1448 1447 1448 1448 1447 1447 1447 1447 1447 1447 1448 1448 1449 1450 1452 1453 1454 1456 1457 1459 1461 1462 1464 1466 1467 1468 1469 1470
1462 1461 1459 1454 1454 1453 1447 1448 1448 1448 1448 1448 1447 1446 1446 1447 1447 1447 1446 1446 1446 1446 1445 1445 1445 1446 1446 1447 1448 1449 1450 1451 1452 1454 1455 1456 1458 1459 1461 1463 1464 1465 1466 1467
1460 1460 1457 1453 1448 1444 1447 1449 1450 1449 1448 1448 1447 1446 1447 1447 1445 1445 1445 1444 1444 1444 1444 1443 1444 1444 1444 1445 1446 1447 1448 1449 1450 1451 1453 1454 1455 1457 1458 1459 1460 1462 1463 1464
1460 1461 1457 1454 1448 1444 1445 1449 1449 1450 1445 1447 1447 1446 1446 1445 1442 1441 1442 1442 1442 1442 1442 1441 1442 1442 1443 1443 1444 1445 1446 1447 1448 1449 1450 1451 1453 1454 1455 1456 1457 1459 1460 1461
1459 1459 1457 1453 1448 1443 1449 1450 1449 1447 1445 1447 1446 1445 1445 1444 1443 1443 1441 1440 1440 1439 1439 1439 1439 1440 1441 1441 1442 1443 1444 1445 1446 1447 1448 1449 1450 1451 1452 1454 1455 1456 1457 1458
1457 1454 1456 1453 1449 1448 1451 1450 1450 1449 1448 1446 1445 1444 1444 1443 1441 1440 1439 1438 1438 1437 1437 1437 1437 1438 1439 1440 1441 1441 1442 1443 1444 1445 1446 1447 1448 1449 1450 1451 1452 1453 1454 1455
1458 1458 1454 1454 1452 1452 1452 1451 1451 1450 1448 1446 1444 1443 1442 1441 1440 1439 1438 1437 1437 1436 1436 1436 1436 1437 1438 1439 1440 1440 1441 1441 1442 1443 1444 1445 1446 1447 1448 1449 1450 1451 1451 1452
1458 1459 1457 1454 1451 1452 1451 1450 1449 1448 1446 1444 1443 1442 1441 1440 1439 1438 1437 1437 1436 1435 1435 1435 1435 1436 1436 1437 1438 1439 1439 1440 1441 1442 1443 1444 1444 1445 1446 1447 1448 1448 1449 1449
1458 1458 1456 1453 1452 1451 1449 1449 1448 1446 1445 1443 1442 1441 1440 1439 1438 1438 1437 1436 1435 1435 1435 1435 1434 1435 1435 1436 1437 1438 1438 1439 1439 1440 1441 1442 1443 1443 1444 1445 1446 1447 1448 1448
1458 1457 1454 1450 1452 1452 1449 1448 1447 1445 1443 1442 1440 1439 1439 1438 1437 1437 1436 1436 1435 1434 1434 1434 1434 1434 1434 1435 1436 1436 1437 1437 1438 1439 1439 1440 1441 1441 1442 1443 1444 1445 1446 1447